Location: Firnhaberau
(48.4049°N, 10.8963°E)
Time: 22:04:34
(UTC+00:00)

Cosmos 1825 - Pass Details

Date: 07 June 2020
Orbit: 504 x 507 km, 82.5° (Epoch: 07 July)

Event Time Altitude Azimuth Distance (km) Brightness Sun altitude
Exits shadow 01:55:21 - 175° (S) 1,891 4.6 -10.3°
Reaches altitude 10° 01:55:48 10° 174° (S) 1,712 4.4 -10.3°
Maximum altitude 01:59:28 57° 96° (E) 600 2.7 -9.9°
Drops below altitude 10° 02:03:12 10° 17° (NNE) 1,728 6.1 -9.5°
Sets 02:05:21 0° 14° (NNE) 2,618 7.1 -9.3°
